Flag for U.S.A. Weather past 2 weeks in Riverside, California, U.S.A.

Now
91 °F

Scattered clouds.


Feels Like: 89 °F
Forecast: 67 / 94 °F
Wind: 12 mph from West

Location: Riverside Municipal Airport

Current Time: Jul 28, 2014 at 6:36:17 PM

Latest Report: Jul 28, 2014 at 5:53 PM


Visibility: 10 mi

Pressure: 29.91 "Hg

Humidity: 28%

Dew point: 54 °F

Location of RiversideLocation

Historic Weather in Riverside — Graph

°F

Riverside temperature yesterday

Maximum temperature yesterday: 95 °F (at 4:53 PM)
Minimum temperature yesterday: 71 °F (at 4:53 AM)
Average temperature yesterday: 83 °F

Past Weeks' High & Low Weather Summary

 TemperatureHumidityPressure
High105 °F (Jul 24, 2:53 PM)87% (Jul 21, 5:53 AM)30.03 "Hg (Jul 21, 5:53 AM)
Low61 °F (Jul 18, 5:53 AM)10% (Jul 24, 12:53 PM)29.68 "Hg (Jul 24, 5:53 PM)
Average77 °F56%29.92 "Hg
* Reported Jul 13 4:53 PM — Jul 28 4:53 PM, Riverside, Weather by CustomWeather, © 2014

Note: Actual official high and low records may vary slightly from our data, if they occured in-between our weather recording intervals... More about our weather records

Advertising

Riverside weather history for previous 24 hours

 ConditionsComfort  
Time TempWeatherWind HumidityBarometerVisibility
4:53 PM
Jul 28
93 °FScattered clouds.10 mph19%29.93 "Hg10 mi
3:53 PM94 °FPartly sunny.12 mph14%29.94 "Hg10 mi
2:53 PM94 °FSunny.7 mph19%29.96 "Hg10 mi
1:53 PM93 °FBroken clouds.8 mph12%29.98 "Hg10 mi
12:53 PM89 °FPartly sunny.5 mph25%30.01 "Hg10 mi
11:53 AM85 °FPartly sunny.6 mph32%30.03 "Hg10 mi
10:53 AM81 °FPartly sunny.6 mph41%30.03 "Hg10 mi
9:53 AM81 °FPartly sunny.3 mph27%30.02 "Hg10 mi
8:53 AM77 °FSunny.No wind36%30.01 "Hg10 mi
7:53 AM74 °FPartly sunny.3 mph48%30.02 "Hg10 mi
6:53 AM72 °FOvercast.3 mph61%30.01 "Hg10 mi
5:53 AM71 °FClear.No wind61%30.01 "Hg10 mi
4:53 AM73 °FLight rain. Passing clouds.3 mph50%30.00 "Hg10 mi
3:53 AM75 °FPassing clouds.3 mph52%29.99 "Hg10 mi
2:53 AM76 °FClear.No wind47%29.98 "Hg10 mi
1:53 AM76 °FClear.3 mph47%29.97 "Hg10 mi
12:53 AM77 °FClear.7 mph45%29.97 "Hg10 mi
11:53 PM
Jul 27
80 °FPassing clouds.5 mph32%29.95 "Hg10 mi
10:53 PM82 °FClear.6 mph28%29.93 "Hg10 mi
9:53 PM83 °FClear.8 mph36%29.91 "Hg10 mi
8:53 PM87 °FSunny.6 mph28%29.89 "Hg10 mi
7:53 PM89 °FSunny.9 mph29%29.86 "Hg10 mi
6:53 PM92 °FPartly sunny.10 mph26%29.86 "Hg10 mi
Weather by CustomWeather, © 2014

See weather overviewHow to use our weather pages